CAPE
1106 1329 1314 1072 934 891 824 908 1252 1477 1442 1348 1451 984 913 890 785 616 721 633 697 503 523 547 516 423 434 411 404 353 261 85
1306 1274 1009 637 473 624 715 768 885 1321 1420 1347 858 589 523 491 316 450 316 251 99 31 149 334 260 191 223 226 231 145 84 6
344 528 1101 580 273 399 634 849 898 975 1003 901 888 333 279 15 158 105 10 0 0 0 0 0 0 0 0 8 56 0 0 0
158 332 628 855 831 514 515 789 690 623 719 398 452 525 173 15 60 36 5 0 0 0 0 0 0 0 0 0 0 0 0 0
8 404 589 534 569 868 781 483 509 381 310 316 64 38 28 55 0 11 0 0 0 0 0 0 0 0 0 0 0 0 0 0
0 150 324 236 3 215 197 289 25 73 113 92 7 9 0 0 0 0 0 0 0 0 0 0 0 0 0 0 0 0 0 0
0 1 56 140 0 0 0 0 0 0 0 0 0 0 0 0 0 0 0 0 0 0 0 0 0 0 0 0 0 0 0 0
0 0 0 0 0 0 0 0 0 0 0 0 0 0 0 0 0 0 0 0 0 0 0 0 0 0 0 0 0 0 0 0
0 0 0 0 0 0 0 0 0 0 0 0 0 0 0 0 0 0 0 0 0 0 0 0 0 0 0 0 1 9 9 0
0 0 0 0 0 0 0 0 0 0 0 0 0 0 0 0 0 0 0 0 0 0 0 0 0 0 0 0 0 0 0 0
0 0 0 0 0 0 0 0 0 0 0 0 0 0 0 0 0 0 0 0 0 0 0 0 0 0 0 0 0 0 0 0
0 0 0 0 0 0 0 0 0 0 0 0 0 0 0 0 0 0 0 0 0 0 0 0 0 0 0 0 0 0 0 0
0 0 0 0 0 0 0 0 0 0 0 0 0 0 0 0 0 0 0 0 0 0 0 0 0 0 0 0 0 0 0 0
0 0 0 0 0 0 0 0 0 0 0 0 0 0 0 0 0 0 0 0 0 0 0 0 0 0 0 0 0 0 0 0
0 0 0 0 0 0 0 0 0 0 0 0 0 0 0 0 0 0 0 0 0 0 0 0 0 0 0 0 0 0 0 0
0 0 0 0 0 0 0 0 0 0 0 0 0 0 0 0 0 0 0 0 0 0 0 0 0 0 0 0 0 0 0 0
0 0 0 0 0 0 0 0 0 0 0 0 0 0 0 0 0 0 0 0 0 0 0 0 0 0 0 0 0 0 0 0
0 0 0 0 0 0 0 0 0 0 0 0 0 0 0 0 0 0 0 0 0 0 0 0 0 0 0 0 0 0 0 0
0 0 0 0 0 0 0 0 0 0 0 0 0 0 0 0 0 0 0 0 0 0 0 0 0 0 0 0 0 0 0 0
0 0 0 0 0 0 0 0 0 0 0 0 0 0 0 0 0 0 0 0 0 0 0 0 0 0 0 0 0 0 0 0
CIN
-248 -181 -187 -222 -222 -208 -204 -166 -83 -58 -37 -16 -14 -43 -32 -19 -8 -26 -20 -25 -24 -41 -40 -34 -43 -40 -14 -16 -27 -60 -83 -197
-130 -163 -263 -319 -338 -281 -216 -163 -105 -34 -31 -13 -74 -97 -89 -71 -109 -28 -34 -34 -90 -152 -93 -55 -57 -51 -23 -27 -44 -72 -125 -189
-271 -246 -153 -302 -404 -336 -241 -171 -115 -65 -75 -60 -44 -128 -152 -82 -154 -153 -101 -0 -0 -0 -0 -0 -0 -0 -0 -208 -125 -0 -0 -0
-370 -253 -182 -119 -85 -245 -221 -151 -170 -173 -124 -186 -145 -103 -234 -336 -245 -221 -273 -0 -0 -0 -0 -0 -0 -0 -0 -0 -0 -0 -0 -0
-498 -256 -192 -184 -148 -107 -114 -172 -166 -177 -194 -187 -309 -357 -336 -288 -13 -159 -0 -0 -0 -0 -0 -0 -0 -0 -0 -0 -0 -0 -0 -181
-0 -357 -264 -290 -467 -272 -259 -244 -319 -307 -219 -260 -315 -320 -87 -0 -0 -0 -0 -0 -0 -0 -0 -0 -0 -0 -0 -0 -0 -0 -0 -0
-0 -74 -397 -311 -0 -0 -0 -0 -0 -0 -0 -0 -0 -0 -0 -0 -0 -0 -0 -0 -0 -0 -0 -0 -0 -0 -0 -0 -0 -0 -0 -0
-0 -0 -0 -0 -0 -0 -0 -0 -0 -0 -0 -0 -0 -0 -0 -0 -0 -0 -0 -0 -0 -0 -0 -0 -0 -0 -0 -0 -0 -0 -0 -0
-0 -0 -0 -0 -0 -0 -0 -0 -0 -0 -0 -0 -0 -0 -0 -0 -0 -0 -0 -0 -0 -0 -0 -0 -0 -0 -0 -0 -1 -13 -23 -0
-0 -0 -0 -0 -0 -0 -0 -0 -0 -0 -0 -0 -0 -0 -0 -0 -0 -0 -0 -0 -0 -0 -0 -0 -0 -0 -0 -0 -0 -0 -0 -0
-0 -0 -0 -0 -0 -0 -0 -0 -0 -0 -0 -0 -0 -0 -0 -0 -0 -0 -0 -0 -0 -0 -0 -0 -0 -0 -0 -0 -0 -0 -0 -0
-0 -0 -0 -0 -0 -0 -0 -0 -0 -0 -0 -0 -0 -0 -0 -0 -0 -0 -0 -0 -0 -0 -0 -0 -0 -0 -0 -0 -0 -0 -0 -0
-0 -0 -0 -0 -0 -0 -0 -0 -0 -0 -0 -0 -0 -0 -0 -0 -0 -0 -0 -0 -0 -0 -0 -0 -0 -0 -0 -0 -0 -0 -0 -0
-0 -0 -0 -0 -0 -0 -0 -0 -0 -0 -0 -0 -0 -0 -0 -0 -0 -0 -0 -0 -0 -0 -0 -0 -0 -0 -0 -0 -0 -0 -0 -0
-0 -0 -0 -0 -0 -0 -0 -0 -0 -0 -0 -0 -0 -0 -0 -0 -0 -0 -0 -0 -0 -0 -0 -0 -0 -0 -0 -0 -0 -0 -0 -0
-0 -0 -0 -0 -0 -0 -0 -0 -0 -0 -0 -0 -0 -0 -0 -0 -0 -0 -0 -0 -0 -0 -0 -0 -0 -0 -0 -0 -0 -0 -0 -0
-0 -0 -0 -0 -0 -0 -0 -0 -0 -0 -0 -0 -0 -0 -0 -0 -0 -0 -0 -0 -0 -0 -0 -0 -0 -0 -0 -0 -0 -0 -0 -0
-0 -0 -0 -0 -0 -0 -0 -0 -0 -0 -0 -0 -0 -0 -0 -0 -0 -0 -0 -0 -0 -0 -0 -0 -0 -0 -0 -0 -0 -0 -0 -0
-0 -0 -0 -0 -0 -0 -0 -0 -0 -0 -0 -0 -0 -0 -0 -0 -0 -0 -0 -0 -0 -0 -0 -0 -0 -0 -0 -0 -0 -0 -0 -0
-0 -0 -0 -0 -0 -0 -0 -0 -0 -0 -0 -0 -0 -0 -0 -0 -0 -0 -0 -0 -0 -0 -0 -0 -0 -0 -0 -0 -0 -0 -0 -0
Wind_Speed
6 7 8 10 9 8 7 6 6 6 7 9 9 11 11 13 12 12 14 13 13 13 3 4 2 4 5 4 6 6 5 4
6 5 5 6 6 8 9 7 6 5 5 7 11 9 11 12 11 11 12 11 11 11 9 9 7 5 4 4 4 6 5 7
6 6 6 6 6 7 10 10 9 8 5 7 9 4 5 8 10 10 11 12 10 10 8 5 7 5 3 3 5 2 5 5
6 5 4 4 4 6 6 6 5 5 5 5 4 5 6 6 8 8 8 7 7 6 4 4 3 2 3 1 2 1 2 4
6 4 2 4 3 4 2 3 4 3 6 5 5 3 3 4 3 2 2 4 1 3 2 4 4 3 3 3 3 3 1 3
7 5 2 3 3 3 3 3 4 3 4 5 3 3 2 2 2 1 1 1 4 4 2 3 5 5 5 5 5 5 2 3
8 6 2 1 4 3 3 4 4 3 3 3 4 3 4 4 3 3 3 2 1 2 2 3 4 5 5 5 6 7 4 4
8 7 5 3 3 4 3 3 3 3 3 3 4 3 3 3 3 3 3 3 2 2 2 3 3 3 5 6 6 4 5 7
8 6 5 3 4 3 3 3 3 3 4 4 3 2 3 2 3 3 2 2 4 2 1 2 3 3 4 4 3 4 5 7
8 6 7 5 4 4 3 5 4 4 4 4 3 1 1 0 3 3 1 2 3 2 2 2 3 3 3 4 3 4 6 7
7 7 6 5 3 3 2 4 3 4 4 4 6 4 3 1 3 3 3 1 2 2 1 1 1 3 4 4 4 4 5 6
7 5 6 5 2 1 1 1 3 2 5 5 7 5 5 2 2 4 4 3 3 2 2 1 1 2 4 5 5 5 5 4
6 5 4 3 2 2 2 3 3 3 5 7 7 6 7 5 3 4 4 3 4 3 2 2 2 1 2 4 3 6 6 5
6 6 6 5 3 4 4 4 5 4 4 5 8 8 8 7 6 5 4 3 1 1 1 1 2 1 1 1 4 6 4 5
8 9 8 7 9 4 2 2 2 1 3 2 6 8 8 8 7 5 5 3 3 3 2 1 2 3 1 2 4 4 7 4
7 7 8 7 8 5 8 6 5 5 5 4 5 6 7 7 6 5 4 3 3 0 3 1 1 3 3 3 4 4 7 12
7 7 7 7 5 7 6 6 5 3 3 3 2 3 7 5 4 5 5 4 5 5 4 5 1 1 2 2 3 4 3 7
5 7 8 8 8 8 9 12 11 6 5 4 4 3 4 6 7 6 6 5 4 3 3 6 5 5 4 4 5 6 8 9
2 5 8 9 9 9 10 11 12 12 9 6 7 4 4 5 5 4 2 3 5 7 8 6 6 5 7 7 5 7 7 9
5 7 8 8 8 9 8 9 8 10 6 4 4 4 5 6 6 7 7 8 11 11 10 9 7 7 9 6 7 7 7 7
Wind_Direction
147 148 136 127 125 126 115 99 86 70 75 88 85 95 85 84 86 88 90 81 73 71 118 207 205 212 219 212 232 242 270 257
138 136 134 149 150 150 138 142 128 120 90 98 111 109 106 98 93 96 105 107 99 95 93 84 62 21 322 293 293 300 287 283
71 99 146 181 166 172 150 146 143 145 157 149 142 147 124 107 104 96 91 90 77 66 69 83 94 70 56 335 351 328 316 297
92 54 16 340 192 159 148 154 162 172 176 168 168 143 151 145 140 144 131 113 108 87 52 42 27 6 338 82 147 268 303 319
100 101 39 17 68 150 133 138 148 137 119 116 126 127 117 157 156 165 133 103 83 103 352 332 326 319 293 313 309 303 268 299
127 115 94 47 63 94 102 134 103 112 111 109 114 118 137 78 96 111 170 164 181 171 183 261 296 293 285 293 293 291 300 301
142 137 142 138 97 87 78 67 80 84 84 82 73 147 153 142 159 147 139 167 94 333 233 211 224 259 279 267 261 266 288 278
154 149 179 189 138 122 113 99 101 90 99 76 51 103 79 142 154 171 116 106 80 73 35 349 295 240 237 253 264 238 237 252
149 156 186 150 152 141 151 180 154 133 121 93 58 88 115 117 128 92 136 120 141 119 330 336 332 314 298 296 300 305 284 265
157 157 160 164 180 185 195 194 164 166 154 152 143 114 180 194 123 121 61 31 124 76 47 1 336 327 316 304 298 299 288 283
148 130 150 185 182 203 244 203 185 191 165 169 177 188 229 157 149 163 159 201 141 135 35 124 322 318 304 295 292 288 272 294
132 148 159 170 169 179 100 222 246 199 196 184 182 183 198 195 179 193 187 179 160 181 191 276 210 296 321 315 307 302 309 281
133 144 199 147 154 169 216 226 244 233 224 190 190 183 190 193 195 205 216 173 178 199 196 207 307 305 10 328 305 281 323 301
183 200 197 197 179 203 185 195 224 211 221 198 196 182 194 190 203 212 187 166 169 27 103 311 281 306 243 280 330 309 288 327
195 206 209 205 209 197 224 275 304 221 214 207 211 198 194 190 193 194 197 173 192 187 232 230 283 308 256 190 316 283 304 294
215 212 218 223 210 208 208 215 214 222 206 201 211 236 209 200 191 187 195 173 150 309 60 86 139 280 313 264 239 256 297 305
208 221 238 244 218 209 223 235 230 225 231 215 229 207 182 199 143 96 86 77 59 39 11 18 357 326 299 298 283 288 278 289
203 220 242 245 239 233 208 218 228 198 201 179 167 128 97 84 96 89 91 93 62 26 4 2 332 300 279 266 269 279 286 286
261 256 268 265 256 248 239 228 222 216 196 178 165 149 129 115 95 83 65 50 54 10 352 298 273 277 268 274 262 266 270 274
357 344 308 283 265 262 263 254 235 221 183 147 117 116 117 101 89 62 44 17 5 333 282 267 269 259 260 252 268 270 271 272